SL-8 R/B, 2802

Orbit data source: Space-Track

SL-8 R/B, 2802 is space debris in LEO originally from a launch on Mon, 15 May 1967 UTC launched from the Plesetsk Missile And Space Complex (PKMTR). Debris objects in space refer to the collection of defunct objects orbiting the Earth. Examples of debris include non-operational satellites, rocket bodies, and fragments generated from explosions, collisions, or faulty payload assembly.

Loading next visibility...
Identifier
2802, 1967-045B
Orbit
LEO
Country
Flag of CISCIS
Related business
Manufacturer
Yuzhnoe
Mission
Spacecraft
Bus & Motor
S3, Unknown motor
Mass
1,434 kg wet, 1,434 kg dry
Launch date (UTC)
1967-05-15 (59 years ago)
Launch vehicle
Unknown
Launch site
Plesetsk Missile And Space Complex (PKMTR)
Object type
Payload
Rocket body
Debris
Shape & HBR
Unknown
Radar Cross Section
Large (>1 m²)

Expand to show TLE details & history
Last TLE update: 7 hours ago

TLE from 7 hours ago
0 SL-8 R/B
1  2802U 67045B   25318.69447699  .00000682  00000-0  19626-3 0  9990
2  2802  74.0109 202.8289 0065401 238.3648 121.1119 14.45506301 72404
Epoch: 2025-11-14T16:40Z
TLE epoch observation values (Epoch: 2025-11-14T16:40:02.811Z)
Latitude
-0.00005°
Longitude
-101.21712°
Altitude
767.266 km
Speed
7.458 km/s
True Right ascension
13h 31m 18s
True Declination
0° 00' 00"
Sunlit
Object was in daylight at epoch
Visualization orbit readout
Latitude
Unknown
Longitude
Unknown
Altitude
Unknown
Speed
Unknown
Apparent Right ascension
Unknown
Apparent Declination
Unknown
Sunlit
N/A
Visualization observer readout
Local Sidereal Time
20:18:18
Azimuth
Unknown
Elevation
Unknown
Doppler factor
Unknown
Orbital elements
Apogee altitude
784.519 km
Perigee altitude
691.439 km
Semi-major axis
7,116.116 km
Eccentricity
0.00654
Inclination
74.0109°
RAAN
202.8289°
Arg. of periapsis
238.3648°
True anomaly
121.75083°
Mean anomaly
121.1119°
Eccentric anomaly
121.43163°
Mean motion
3.61559 °/min
Orbital period
99.57 mins
BSTAR
0.00019626
Loading maneuver chart data...
Computing Atmospheric mass density...
Loading historical data...
Loading historical data...
Loading historical data...
Loading historical data...
Loading historical data...
Loading historical data...
Loading historical data...
Other satellites on launch #45 in the year 1967 (1967-05-15 UTC)

Documentation

Showing up to 5 results
|